Home   Weather   Matamoros   Past weeks

Flag for Mexico Past Weather in Matamoros, Tamaulipas, Mexico — Yesterday and Last 2 Weeks

Now
77 °F

Clear.


Feels Like: 78 °F
Forecast: 72 / 88 °F
Wind: 5 mph from North

Location: Brownsville / South Padre Island International Airport

Current Time: Sep 29, 2016 at 11:59:00 PM

Latest Report: Sep 29, 2016 at 10:53 PM


Visibility: 10 mi

Pressure: 30.09 "Hg

Humidity: 85%

Dew Point: 72 °F

Location of MatamorosLocation

Past Weather in Matamoros — Graph

°F

Matamoros Temperature Yesterday

Maximum temperature yesterday: 84 °F (at 4:53 PM)
Minimum temperature yesterday: 72 °F (at 3:53 AM)
Average temperature yesterday: 77 °F

High & Low Weather Summary for the Past Weeks

 TemperatureHumidityPressure
High97 °F (Sep 17, 3:53 PM)97% (Sep 27, 1:01 PM)30.12 "Hg (Sep 27, 1:01 PM)
Low72 °F (Sep 28, 3:53 AM)40% (Sep 21, 1:53 PM)29.83 "Hg (Sep 25, 4:53 PM)
Average84 °F76%29.95 "Hg
* Reported Sep 14 10:53 PM — Sep 29 10:53 PM, Matamoros, Weather by CustomWeather, © 2016

Note: Actual official high and low records may vary slightly from our data, if they occured in-between our weather recording intervals... More about our weather records

Advertising

Matamoros Weather History for the Previous 24 Hours

Scroll right to see more
 ConditionsComfort  
Time TempWeatherWind HumidityBarometerVisibility
10:53 PM
Thu, Sep 29
77 °FClear.5 mph85%30.09 "Hg10 mi
9:53 PM78 °FClear.3 mph82%30.09 "Hg10 mi
8:53 PM79 °FClear.5 mph79%30.08 "Hg10 mi
7:53 PM81 °FClear.6 mph74%30.07 "Hg10 mi
6:53 PM83 °FSunny.9 mph70%30.07 "Hg10 mi
5:53 PM86 °FSunny.15 mph63%30.06 "Hg10 mi
4:53 PM86 °FPartly sunny.10 mph67%30.05 "Hg10 mi
3:53 PM88 °FScattered clouds.13 mph61%30.04 "Hg10 mi
2:53 PM86 °FPartly sunny.14 mph72%30.06 "Hg10 mi
1:53 PM86 °FMostly cloudy.15 mph67%30.09 "Hg10 mi
1:01 PM87 °FMostly cloudy.14 mph69%30.12 "Hg10 mi
12:53 PM85 °FMostly cloudy.9 mph72%30.11 "Hg10 mi
11:53 AM82 °FLight rain. Mostly cloudy.7 mph85%30.11 "Hg10 mi
10:53 AM85 °FBroken clouds.9 mph75%30.11 "Hg10 mi
9:53 AM82 °FSunny.6 mph82%30.10 "Hg10 mi
8:53 AM81 °FSunny.7 mph85%30.09 "Hg10 mi
7:53 AM76 °FSunny.6 mph94%30.06 "Hg10 mi
6:53 AM76 °FClear.5 mph97%30.05 "Hg10 mi
5:53 AM77 °FPassing clouds.5 mph94%30.04 "Hg10 mi
4:53 AM77 °FPassing clouds.No wind94%30.03 "Hg10 mi
3:53 AM78 °FOvercast.3 mph90%30.03 "Hg10 mi
2:53 AM78 °FPassing clouds.3 mph93%30.03 "Hg10 mi
1:53 AM78 °FPassing clouds.5 mph93%30.03 "Hg10 mi
12:53 AM77 °FPassing clouds.5 mph96%30.04 "Hg10 mi
11:53 PM
Wed, Sep 28
78 °FPassing clouds.No wind93%30.04 "Hg10 mi
Weather by CustomWeather, © 2016

See weather overviewHow to use our weather pages